This is the latest recevied weather packets stored in our database for station/object IK2YOU-3. If no packets are shown the sender has not sent any weather packets the latest 10 day(s).
| Time | Temp. | Humidity | Pressure | Rain* | Wind** | Luminosity | Snow |
|---|---|---|---|---|---|---|---|
| 1777776347 | 12.22° C | 76% | 1016.8 hPa | 0 mm | - | 0 W/m² | - |
| 1777775748 | 12.78° C | 75% | 1016.9 hPa | 0 mm | - | 0 W/m² | - |
| 1777775149 | 12.78° C | 75% | 1017 hPa | 0 mm | - | 0 W/m² | - |
| 1777774424 | 12.78° C | 75% | 1017 hPa | 0 mm | - | 0 W/m² | - |
| 1777773818 | 12.78° C | 75% | 1016.9 hPa | 0 mm | - | 0 W/m² | - |
| 1777773347 | 13.33° C | 74% | 1016.9 hPa | 0 mm | - | 0 W/m² | - |
| 1777772615 | 13.33° C | 73% | 1016.9 hPa | 0 mm | - | 0 W/m² | - |
| 1777772015 | 13.33° C | 71% | 1016.9 hPa | 0 mm | - | 0 W/m² | - |
| 1777771416 | 13.33° C | 71% | 1017 hPa | 0 mm | - | 0 W/m² | - |
| 1777770814 | 13.33° C | 69% | 1017 hPa | 0 mm | - | 0 W/m² | - |
| 1777770342 | 13.89° C | 68% | 1017.1 hPa | - | - | 0 W/m² | - |
| 1777769682 | 13.89° C | 67% | 1017.2 hPa | 0 mm | - | 0 W/m² | - |
| 1777769082 | 13.89° C | 66% | 1017.2 hPa | 0 mm | - | 0 W/m² | - |
| 1777768482 | 14.44° C | 65% | 1017.3 hPa | 0 mm | - | 0 W/m² | - |
| 1777767879 | 14.44° C | 64% | 1017.4 hPa | 0 mm | - | 0 W/m² | - |
| 1777767279 | 14.44° C | 64% | 1017.5 hPa | 0 mm | - | 0 W/m² | - |
| 1777766680 | 14.44° C | 65% | 1017.5 hPa | 0 mm | - | 0 W/m² | - |
| 1777766080 | 13.89° C | 64% | 1017.6 hPa | 0 mm | - | 0 W/m² | - |
| 1777765478 | 14.44° C | 64% | 1017.8 hPa | 0 mm | - | 0 W/m² | - |
| 1777764878 | 14.44° C | 63% | 1017.8 hPa | 0 mm | - | 0 W/m² | - |
| 1777764277 | 14.44° C | 63% | 1017.9 hPa | 0 mm | - | 0 W/m² | - |
| 1777763678 | 15° C | 62% | 1017.9 hPa | 0 mm | - | 0 W/m² | - |
| 1777763078 | 15° C | 63% | 1017.9 hPa | 0 mm | - | 0 W/m² | - |
| 1777762478 | 15° C | 59% | 1018 hPa | 0 mm | - | 0 W/m² | - |
| 1777761878 | 15.56° C | 59% | 1017.9 hPa | 0 mm | - | 0 W/m² | - |
* Rain latest hour (hover to see other rain measurements)
** Current wind speed in m/s (hover to see current wind gust speed)